SSYMA

Sistema Integrado de Gestión de Seguridad, Salud Ocupacional y Medio Ambiente


Procedimientos de Administración del Sistema

Documentos Varios

Procedimientos de Control Ambiental

Documentos Varios

Formatos

Documentos Internos

Documentos Varios


MSDS Aprobadas


  1. 1538521044409GF-MP -1603A - (UT-X® Powder).pdf
  2. 1538521044409GF-MP- 1001A - (Oxido Nitroso (Protóxido de nitrogeno; gas hilarante)).pdf
  3. 1538521044409GF-MP- 1002A - (Solución de Calibración de Conductividad 1413 mS-cm, - HI 7031).pdf
  4. 1538521044409GF-MP- 1009A - (Aceite para motores diesel VDS-3 15W40).pdf
  5. 1538521044409GF-MP- 101C - (Oxigeno gaseoso).pdf
  6. 1538521044409GF-MP- 1045A - (Slurrex MA (Slurrex Gasificable)).pdf
  7. 1538521044409GF-MP- 1055A - (Adhesivo super VF 2600).pdf
  8. 1538521044409GF-MP- 1066A - (Esmalte Pato Blanco).pdf
  9. 1538521044409GF-MP- 1072A - (Thinner acrilico standard).pdf
  10. 1538521044409GF-MP- 1073A - (Loctite 7387 Depend activador).pdf
  11. 1538521044409GF-MP- 1085A - (Soldadura Tenacito-80).pdf
  12. 1538521044409GF-MP- 1089A - (Soldadura Inox AW).pdf
  13. 1538521044409GF-MP- 108A - (Cemento solvente CPVC Oatey).pdf
  14. 1538521044409GF-MP- 10A - (Nitrato de plata).pdf
  15. 1538521044409GF-MP- 1107A - (Spotcheck penetrant SKL-SP2).pdf
  16. 1538521044409GF-MP- 111A - (Antisol S).pdf
  17. 1538521044409GF-MP- 111B - (Antisol S).pdf
  18. 1538521044409GF-MP- 1130A - (Tip Top Endurecedor E40 (Tip Top Hardener E40)).pdf
  19. 1538521044409GF-MP- 113A - (Esmalte sintetico pintor blanco).pdf
  20. 1538521044409GF-MP- 113B - (Esmalte sintetico pintor blanco).pdf
  21. 1538521044409GF-MP- 1156A - (Scotch ( TM ) Sellador aislante 1602 (Rojo)).pdf
  22. 1538521044409GF-MP- 1167A - (Sulfhidrato de sodio - NaSH (de Renasa)).pdf
  23. 1538521044409GF-MP- 1192A - (Shell Gadus S2 V220 2).pdf
  24. 1538521044409GF-MP- 11A - (Tiosulfato de sodio).pdf
  25. 1538521044409GF-MP- 1204A - (Rojo de metilo (C.I. 13020)).pdf
  26. 1538521044409GF-MP- 1205A - (Cobre (metálico)).pdf
  27. 1538521044409GF-MP- 1210A - (Specifix 40 Curing Agent).pdf
  28. 1538521044409GF-MP- 1211A - (Specifix Resin).pdf
  29. 1538521044409GF-MP- 122A - (Cemento portland tipo-1).pdf
  30. 1538521044409GF-MP- 122D - (Cemento portland Argos).pdf
  31. 1538521044409GF-MP- 1241A - (Limpiador de manos).pdf
  32. 1538521044409GF-MP- 1256A - (Bolas Cerámicas King’s MineMate ZR320).pdf
  33. 1538521044409GF-MP- 1257A - (Ferrozine® Almohadas de Solución de Hierro).pdf
  34. 1538521044409GF-MP- 1258A - (Tipo tampón citrato de Polvo (USEPA Reactivo para manganeso HR 10 ml)).pdf
  35. 1538521044409GF-MP- 1259A - (Periodato de sodio (USEPA Reactivo para Manganeso HR 10 ml)).pdf
  36. 1538521044409GF-MP- 1261A - (Ácido ascórbico (Reactivo para manganeso LR 10 ml)).pdf
  37. 1538521044409GF-MP- 1264C - (Cianuro de Sodio).pdf
  38. 1538521044409GF-MP- 1268A - (Arcair).pdf
  39. 1538521044409GF-MP- 128A - (Mobilube HD 85W-140).pdf
  40. 1538521044409GF-MP- 128B - (Mobilube HD 85W-140).pdf
  41. 1538521044409GF-MP- 1291A - (Formador de empaquetadura ADEX).pdf
  42. 1538521044409GF-MP- 1298A - (Shell Omala S4 GX 220).pdf
  43. 1538521044409GF-MP- 12A - (Magnafloc 10).pdf
  44. 1538521044409GF-MP- 1302A - Solución Gasificante).pdf
  45. 1538521044409GF-MP- 1303A - (Nitrato de Amonio Quantex).pdf
  46. 1538521044409GF-MP- 1315A - (UCAR ® Extruded Graphite Shapes).pdf
  47. 1538521044409GF-MP- 1340B - (Hipoclorito de Sodio 7.5%).pdf
  48. 1538521044409GF-MP- 1359A - (Wirtgen Group Special Gear Oil 85W-90).pdf
  49. 1538521044409GF-MP- 1361A - (Wirtgen Group High-Performance Gear Oil 220).pdf
  50. 1538521044409GF-MP- 1362A- (WG Hight Hidraulic Oil HVLP 46).pdf
  51. 1538521044409GF-MP- 1375A - (21057-69- FerroVer Iron Reagent).pdf
  52. 1538521044409GF-MP- 1379A - (Valvoline Cerulean #2 Grasa).pdf
  53. 1538521044409GF-MP- 1386A - (TPX HD Total Power).pdf
  54. 1538521044409GF-MP- 1403A - (Komatsu 15W-40 LOW ASH).pdf
  55. 1538521044409GF-MP- 1404A - (Shell Spirax S2 A 85W-140).pdf
  56. 1538521044409GF-MP- 1407A - (Shell Air Tool Oil S2 A 150).pdf
  57. 1538521044409GF-MP- 1408A - (Shell Corena S4 R 68).pdf
  58. 1538521044409GF-MP- 1409A - (Nexo Ultra ELC-N 50-50).pdf
  59. 1538521044409GF-MP- 140A - (Loctite 569).pdf
  60. 1538521044409GF-MP- 1414A - (Shell Spirax S2 ALS 80W90).pdf
  61. 1538521044409GF-MP- 1414B - (Shell Spirax S2 ALS 80W90).pdf
  62. 1538521044409GF-MP- 1415A - (Shell Spirax S6 AXME 75W-90).pdf
  63. 1538521044409GF-MP- 1417A - (Shell Spirax S4 CX 50).pdf
  64. 1538521044409GF-MP- 1419A - (3M Scotchkote Urethane Elastomer 80XRG 539 Parte A).pdf
  65. 1538521044409GF-MP- 141B - (Alcohol isopropilico 99).pdf
  66. 1538521044409GF-MP- 1420A - (3M Scotchkote Urethane Elastomer 80XRG 539 parte B).pdf
  67. 1538521044409GF-MP- 1422A - (HHS 2000).pdf
  68. 1538521044409GF-MP- 1438A - (Shell Gadus S3 V460D 2).pdf
  69. 1538521044409GF-MP- 1439A - (Shell Rimula R4 X 15W-40).pdf
  70. 1538521044409GF-MP- 1439B - (Shell Rimula R4 X 15W-40).pdf
  71. 1538521044409GF-MP- 1441A - (Fundente Oxidado).pdf
  72. 1538521044409GF-MP- 1442A - (Fundente Concentrado).pdf
  73. 1538521044409GF-MP- 1446A - (Shell Omala S4 GXV 460).pdf
  74. 1538521044409GF-MP- 1450A - (Solvente Epóxico).pdf
  75. 1538521044409GF-MP- 1453A - (Esmalte Epoxico Titanic).pdf
  76. 1538521044409GF-MP- 1454B - (Catalizador Epoxico).pdf
  77. 1538521044409GF-MP- 1462A - (Removedor de Pintura).pdf
  78. 1538521044409GF-MP- 1462B - (Removedor de Pintura).pdf
  79. 1538521044409GF-MP- 1484A - (Tungsteno - Tungsteno y Acelerador de Tungsteno).pdf
  80. 1538521044409GF-MP- 1495A - (Hierro solución Patrón Fe (1,000+-0,002 g-l)).pdf
  81. 1538521044409GF-MP- 1497A - (Anaranjado de Metilo).pdf
  82. 1538521044409GF-MP- 1500A - (Novomax Biobloc 22).pdf
  83. 1538521044409GF-MP- 1500A - (Novomax Bioblock 22).pdf
  84. 1538521044409GF-MP- 1510A - (Cloruro de Sodio).pdf
  85. 1538521044409GF-MP- 1517A - (Nalco ® DVS4O005).pdf
  86. 1538521044409GF-MP- 1536A - (Circlesafe® 850A).pdf
  87. 1538521044409GF-MP- 1541A - (Agua de Procesos).pdf
  88. 1538521044409GF-MP- 1548A - (RingFree).pdf
  89. 1538521044409GF-MP- 1549A - (MC-C1844).pdf
  90. 1538521044409GF-MP- 1550A - (ACUMERTM 9000).pdf
  91. 1538521044409GF-MP- 1551A - (ACUMERTM 9141 (Base Bulk)).pdf
  92. 1538521044409GF-MP- 1552A - (ACUMERTM 9300 Polymer).pdf
  93. 1538521044409GF-MP- 1553A - (ACUMERTM 9400 Polymer).pdf
  94. 1538521044409GF-MP- 1556A - (DP-Suspension A).pdf
  95. 1538521044409GF-MP- 1557A - (Conductivity standard 10 ms-cm).pdf
  96. 1538521044409GF-MP- 1558A - (Conductivity standard 5 ms-cm).pdf
  97. 1538521044409GF-MP- 1559A - (Removedor Veloz X7000).pdf
  98. 1538521044409GF-MP- 1560A - (JET Duramastic ESM 930).pdf
  99. 1538521044409GF-MP- 1561A - (DP-Lubricant Brown).pdf
  100. 1538521044409GF-MP- 1562A - (Silicona Kryzzal (2)).pdf
  101. 1538521044409GF-MP- 1562A - (Silicona Kryzzal).pdf
  102. 1538521044409GF-MP- 1563A - (LGPE2 (2)).pdf
  103. 1538521044409GF-MP- 1563A - (LGPE2).pdf
  104. 1538521044409GF-MP- 1564A - (Aceite 20W50 (2)).pdf
  105. 1538521044409GF-MP- 1564A - (Aceite 20W50).pdf
  106. 1538521044409GF-MP- 1565A - (Superfloc RH 4810 (2)).pdf
  107. 1538521044409GF-MP- 1565A - (Superfloc RH 4810).pdf
  108. 1538521044409GF-MP- 1566A - (Flopaam RP-610 (2)).pdf
  109. 1538521044409GF-MP- 1566A - (Flopaam RP-610).pdf
  110. 1538521044409GF-MP- 1567A - (Aero 9865 Promoter (2)).pdf
  111. 1538521044409GF-MP- 1567A - (Aero 9865 Promoter).pdf
  112. 1538521044409GF-MP- 1568A - (Amalie Pro HP Syn Blend SAE 5W-30).pdf
  113. 1538521044409GF-MP- 1569A - (Lubricante SULLUBE).pdf
  114. 1538521044409GF-MP- 1569A- (Lubricante SULLUBE (2)).pdf
  115. 1538521044409GF-MP- 1570A - (Esmalte epoxico alta duracion).pdf
  116. 1538521044409GF-MP- 1571A - (Gloss X3).pdf
  117. 1538521044409GF-MP- 1571B - (Gloss X3).pdf
  118. 1538521044409GF-MP- 1572A - (Barniz T-81).pdf
  119. 1538521044409GF-MP- 1572B - (Barniz T-81).pdf
  120. 1538521044409GF-MP- 1573A - (Cola sintetica champion).pdf
  121. 1538521044409GF-MP- 1575A - (Fast Laca Selladora).pdf
  122. 1538521044409GF-MP- 1576A - (Lava vajilla Sapolio).pdf
  123. 1538521044409GF-MP- 1577A - (Sellador 150 Blanco).pdf
  124. 1538521044409GF-MP- 1578A - (Supercito 7018R).pdf
  125. 1538521044409GF-MP- 1579A - (Chema Top).pdf
  126. 1538521044409GF-MP- 1580A - (Biosanit (2)).pdf
  127. 1538521044409GF-MP- 1580A - (Biosanit).pdf
  128. 1538521044409GF-MP- 1581A -(MC-XF104).pdf
  129. 1538521044409GF-MP- 1582A - (Cellocord P).pdf
  130. 1538521044409GF-MP- 1583A - (Disolvente epóxico- Recubrimientos industriales y marinos.).pdf
  131. 1538521044409GF-MP- 1584A - (Pintura para trafico maestro).pdf
  132. 1538521044409GF-MP- 1584B - (Pintura para trafico maestro).pdf
  133. 1538521044409GF-MP- 1585A - (EM.AGUA (Microorganismos Eficaces)).pdf
  134. 1538521044409GF-MP- 1586A - (Novomax Eco-Drain y Eco Drain Plus (Polvo)).pdf
  135. 1538521044409GF-MP- 1587A - (Gearbox oil 80W90 VOLVO 97305).pdf
  136. 1538521044409GF-MP- 1588A - (Shell Corena S4 R 32).pdf
  137. 1538521044409GF-MP- 1589A - (Vencelatex Latex Verde Glamour Huamanga).pdf
  138. 1538521044409GF-MP- 1590A - (Citodur 600).pdf
  139. 1538521044409GF-MP- 1591A - (Esmalte Sintético Maestro).pdf
  140. 1538521044409GF-MP- 1592A - (Spray Zinc claro perfect).pdf
  141. 1538521044409GF-MP- 1593A - (Pasta mural Anypsa).pdf
  142. 1538521044409GF-MP- 1594A - (Maestro Thinner Acrí­lico Automotriz Reforzado AC-350).pdf
  143. 1538521044409GF-MP- 1595A - (Latex Acrí­lico Satinado Blanco).pdf
  144. 1538521044409GF-MP- 1596A - (S-S 440 Transparente silicona neutra).pdf
  145. 1538521044409GF-MP- 1597A - (Oatey Blue Lava Hot PVC Cement).pdf
  146. 1538521044409GF-MP- 1598A - (Diluyente Epóxico (Dideval)).pdf
  147. 1538521044409GF-MP- 1599A - (Chamfecord).pdf
  148. 1538521044409GF-MP- 1600A - (Catalizador Vulcaflex).pdf
  149. 1538521044409GF-MP- 1601A - (Shell Tellus S2 VX 46).pdf
  150. 1538521044409GF-MP- 1602A - (Colector Flottec 5134).pdf
  151. 1538521044409GF-MP- 1604A - (Sólido de relave (Concentrado de Cobre, en Cerro Corona)).pdf
  152. 1538521044409GF-MP- 1605A - (Cuarzo M40).pdf
  153. 1538521044409GF-MP- 1606A - (P-602 Desengrasante limpiador neutro).pdf
  154. 1538521044409GF-MP- 1607A - (Mobil mining coolant 50%).pdf
  155. 1538521044409GF-MP- 1608A - (GR-202).pdf
  156. 1538521044409GF-MP- 1609A - (Mobilgrease XHP 221).pdf
  157. 1538521044409GF-MP- 1610A - (Esso Gear Oil GX 80W-90).pdf
  158. 1538521044409GF-MP- 1611A - (Sanisil).pdf
  159. 1538521044409GF-MP- 1612A - (Solvente Dieléctrico).pdf
  160. 1538521044409GF-MP- 1613A - (Mobilgrease XHP 220).pdf
  161. 1538521044409GF-MP- 1614A - (Mobil Polyrex EM 103).pdf
  162. 1538521044409GF-MP- 1615A - (SPT-4).pdf
  163. 1538521044409GF-MP- 1616A - (Mobil Delvac MX ESP 15W-40).pdf
  164. 1538521044409GF-MP- 1617A - (Mobil SHC Rarus 46).pdf
  165. 1538521044409GF-MP- 1618A - (Mobil SHC Rarus 68).pdf
  166. 1538521044409GF-MP- 1619A - (Mobil Grease XHP 462 Moly).pdf
  167. 1538521044409GF-MP- 1620A - (UT-X® Powder Paquete A).pdf
  168. 1538521044409GF-MP- 1621A - (UT-X® Powder Paquete B).pdf
  169. 1538521044409GF-MP- 1622A - (Aislarco-2).pdf
  170. 1538521044409GF-MP- 1623A - (Grey 999 Silicone).pdf
  171. 1538521044409GF-MP- 1624A - (Limpiador de Frenos y Piezas).pdf
  172. 1538521044409GF-MP- 1625A - (Limpiador de contactos).pdf
  173. 1538521044409GF-MP- 1626A - (Loctite AA 330 1K General Bonding Acrylic).pdf
  174. 1538521044409GF-MP- 1627A - (Loctite SI 595 Clear RTV Silicone).pdf
  175. 1538521044409GF-MP- 1628A - (Loctite PC 9432 A Backing Material Resin).pdf
  176. 1538521044409GF-MP- 1629A - (Carburo de Calcio).pdf
  177. 1538521044409GF-MP- 1630A - (Chema Alquitran).pdf
  178. 1538521044409GF-MP- 1631A - (Suprem Trial).pdf
  179. 1538521044409GF-MP- 1632A - (Suprem Skala).pdf
  180. 1538521044409GF-MP- 1633A - (Suprem Balsamo).pdf
  181. 1538521044409GF-MP- 1633A- (Suprem Balsamo).pdf
  182. 1538521044409GF-MP- 164A - (Gasohol 90 octanos).pdf
  183. 1538521044409GF-MP- 164B - (Gasohol 90 octanos).pdf
  184. 1538521044409GF-MP- 170A - (Conductivity Calibration Solution 1413 mS-cm).pdf
  185. 1538521044409GF-MP- 180A - (Supercito - Supercito 18).pdf
  186. 1538521044409GF-MP- 182A - (Cellocorp AP).pdf
  187. 1538521044409GF-MP- 183A - (Gasolina 84 octanos).pdf
  188. 1538521044409GF-MP- 18A - (Xantato Amilico de Potasio).pdf
  189. 1538521044409GF-MP- 197A - (3 en 1).pdf
  190. 1538521044409GF-MP- 202A - (Sikaflex 221).pdf
  191. 1538521044409GF-MP- 220A - (Protector silicona UV3 Aerosol).pdf
  192. 1538521044409GF-MP- 225A - (Sika grout 212).pdf
  193. 1538521044409GF-MP- 226F - (Nitrógeno - Lasline N).pdf
  194. 1538521044409GF-MP- 227A - (Pintura para trafico).pdf
  195. 1538521044409GF-MP- 227B - (Pintura para trafico).pdf
  196. 1538521044409GF-MP- 255A - (Mobil Trans HD 30).pdf
  197. 1538521044409GF-MP- 256A - (Mobil Trans HD 50).pdf
  198. 1538521044409GF-MP- 259B - (Thinner acrilico (adelgazador)).pdf
  199. 1538521044409GF-MP- 279A - (Citofonte).pdf
  200. 1538521044409GF-MP- 280B - (Citobronce).pdf
  201. 1538521044409GF-MP- 282B - (Electrical contact & parts cleaner 11 oz).pdf
  202. 1538521044409GF-MP- 283A - (Loctite 271- trabador de roscas de alta resistencia).pdf
  203. 1538521044409GF-MP- 288A - (620 Compuesto retenedor alta temperatura).pdf
  204. 1538521044409GF-MP- 289B - (Disolvente epóxico- Recubrimientos industriales y marinos).pdf
  205. 1538521044409GF-MP- 28A - (Cal Viva (Oxido de Calcio)).pdf
  206. 1538521044409GF-MP- 28B - (Cal Viva (Oxido de Calcio)).pdf
  207. 1538521044409GF-MP- 28C-(Cal Viva (Oxido de Calcio)).pdf
  208. 1538521044409GF-MP- 30A - (Mobil DTE 26).pdf
  209. 1538521044409GF-MP- 31A - (Mobil DTE 25).pdf
  210. 1538521044409GF-MP- 32A - (Mobil DTE 24).pdf
  211. 1538521044409GF-MP- 34A - (Mobil Delvac 1330).pdf
  212. 1538521044409GF-MP- 359A - (Cordon detonante (Exsacord)).pdf
  213. 1538521044409GF-MP- 370A - (Mobil delvac MX 15W-40).pdf
  214. 1538521044409GF-MP- 372A - (Alcohol isopropilico 70%).pdf
  215. 1538521044409GF-MP- 372B - (Alcohol isopropilico 70%).pdf
  216. 1538521044409GF-MP- 374A - (Limpiador removedores SKC-S Spotcheck).pdf
  217. 1538521044409GF-MP- 375A - (Spotcheck developer SKD-S2).pdf
  218. 1538521044409GF-MP- 379A - (Yoduro de potasio).pdf
  219. 1538521044409GF-MP- 37A - (Mobilgear 600 XP 150).pdf
  220. 1538521044409GF-MP- 381A - (Urea (carbonildiamida)).pdf
  221. 1538521044409GF-MP- 385A - (Tiocianato de amonio).pdf
  222. 1538521044409GF-MP- 38A - (Mobilgear 600 XP 68).pdf
  223. 1538521044409GF-MP- 393A - (Tip Top Cement SC 2000).pdf
  224. 1538521044409GF-MP- 393B - (Tip Top Cement SC 4000).pdf
  225. 1538521044409GF-MP- 39A - (Mobil Hydraulic 10W).pdf
  226. 1538521044409GF-MP- 402A - (Loctite 518).pdf
  227. 1538521044409GF-MP- 404A - (Loctite 277).pdf
  228. 1538521044409GF-MP- 405A - (Loctite SF 5408 Belt Dressing (Loctite Belt Dressing)).pdf
  229. 1538521044409GF-MP- 407A - (Loctite 609).pdf
  230. 1538521044409GF-MP- 41A - (Mobilux EP 2).pdf
  231. 1538521044409GF-MP- 426A - (Sikadur 32 gel - Componente A).pdf
  232. 1538521044409GF-MP- 427A - (Sikadur 32 gel - Componente B).pdf
  233. 1538521044409GF-MP- 451A - (Citodur 1000).pdf
  234. 1538521044409GF-MP- 452A - (Chamfercord, supercorte).pdf
  235. 1538521044409GF-MP- 46A - (Mobilgear 600 XP 220).pdf
  236. 1538521044409GF-MP- 475A - (Sikaflex 11FC-Plus colores).pdf
  237. 1538521044409GF-MP- 487A - (Cemento tipo MS).pdf
  238. 1538521044409GF-MP- 488A - (Sikament 290N).pdf
  239. 1538521044409GF-MP- 496A - (Pegamento asfaltico pisopak).pdf
  240. 1538521044409GF-MP- 497A - (Bentonita sódica granulada).pdf
  241. 1538521044409GF-MP- 499A - (Sika Boom).pdf
  242. 1538521044409GF-MP- 509A - (Sikaflex 2C NS EZ Mix - Comp A).pdf
  243. 1538521044409GF-MP- 510A - (Sikaflex 2C NS EZ Mix - Comp B).pdf
  244. 1538521044409GF-MP- 512A - (Perclorato de Magnesio).pdf
  245. 1538521044409GF-MP- 514A - (Ceniza de hueso).pdf
  246. 1538521044409GF-MP- 529A - (Chemizorb).pdf
  247. 1538521044409GF-MP- 537A - (Mobil DTE Oil Light).pdf
  248. 1538521044409GF-MP- 552A - (Silicon RTV transparente superflex).pdf
  249. 1538521044409GF-MP- 562C - (Gel Sanitizante 6 x 1000 ml).pdf
  250. 1538521044409GF-MP- 571B - (Cuarzo Granulado (de un cuarto)).pdf
  251. 1538521044409GF-MP- 575B - (Agua destilada).pdf
  252. 1538521044409GF-MP- 621A - (Terochap).pdf
  253. 1538521044409GF-MP- 637A - (Rost Off Aerosol).pdf
  254. 1538521044409GF-MP- 638A - (CU-800 Cobre).pdf
  255. 1538521044409GF-MP- 651A - (Novec ( TM ) Limpiador de contacto).pdf
  256. 1538521044409GF-MP- 65A - (Hipoclorito de sodio al 5por ciento - Clorox).pdf
  257. 1538521044409GF-MP- 689A - (Diesel B5).pdf
  258. 1538521044409GF-MP- 689C - (Petroleo Diesel B5 S-50).pdf
  259. 1538521044409GF-MP- 689D - (Petróleo Diesel B5 S-50).pdf
  260. 1538521044409GF-MP- 68A - (Pintura Spray Abro).pdf
  261. 1538521044409GF-MP- 68B - (Pintura Spray Abro).pdf
  262. 1538521044409GF-MP- 710A - (Sikaflex 227).pdf
  263. 1538521044409GF-MP- 717A - (HI 7022 ORP Solution 470 mV).pdf
  264. 1538521044409GF-MP- 727A - (Max Gel).pdf
  265. 1538521044409GF-MP- 748A - (Solvo-Rust Super Penetrating Oil).pdf
  266. 1538521044409GF-MP- 74A - (Mobil Delvac MX 15W-40).pdf
  267. 1538521044409GF-MP- 750A - (Exsaline).pdf
  268. 1538521044409GF-MP- 75A - (Mobilgear 600 XP 320).pdf
  269. 1538521044409GF-MP- 780A - (Cemento portland tipo Ico).pdf
  270. 1538521044409GF-MP- 807A - (Loctite 401 Instant Adhesive Prisma Surface insensitive).pdf
  271. 1538521044409GF-MP- 84A - (WD-40 en aerosol).pdf
  272. 1538521044409GF-MP- 854A - (Ancotreat 5690i).pdf
  273. 1538521044409GF-MP- 87B - (Gas Licuado de Petróleo (Gas Propano + Butano)).pdf
  274. 1538521044409GF-MP- 899A - (Mobil Rarus SHC 1026).pdf
  275. 1538521044409GF-MP- 89B - (Oxí­geno).pdf
  276. 1538521044409GF-MP- 914A - (Detonador no electrico (Exsanel)).pdf
  277. 1538521044409GF-MP- 915A - (Refrigerante Sintético SSR Ultra plus Coolant).pdf
  278. 1538521044409GF-MP- 918A - (Trioxido de hierro (Fe2O3-Ocre)).pdf
  279. 1538521044409GF-MP- 91A - (Concentrado de Cobre).pdf
  280. 1538521044409GF-MP- 925A - (Poly Plus RD).pdf
  281. 1538521044409GF-MP- 928A - (LGWA 2).pdf
  282. 1538521044409GF-MP- 949A - (Zenacryl base Zincromato 55BZ Verde).pdf
  283. 1538521044409GF-MP- 968A - (Pegamento Celima gris interiores).pdf
  284. 1538521044409GF-MP- 979A - (Inox 29-9).pdf
  285. 1538521044409GF-MP- 980A - (Sikasil AC).pdf
  286. 1538521044409GF-MP- 992A - (Masilla Bonflex).pdf
  287. 1538521044409GF-MP- 99A - (Acetileno Disuelto).pdf
  288. 1538521044409GF-MP- 99B - (Acetileno Disuelto).pdf
  289. 1538521044409GF-MP- 99C - (Acetileno).pdf